Tracking 19192 objects as of 19-Jun-2018
HD Live streaming from Space Station
objects crossing your sky now

FENGYUN 1C DEB

Track FENGYUN 1C DEB now!
10-day predictions


NORAD ID: 32330
Int'l Code: 1999-025CXX
Perigee: 779.8 km
Apogee: 1,050.1 km
Inclination: 98.1 °
Period: 103.2 minutes
Semi major axis: 7285 km
RCS: 0.0143 m2 (small)
Launch date: May 10, 1999
Source: People's Republic of China (PRC)
Launch site: Taiyaun Space Center, China (TSC)

Note: This is SATELLITE DEBRIS
aabbcc
Your satellite tracking list
Your tracking list is empty




NASA's NSSDC Master Catalog

Two Line Element Set (TLE):
1 32330U 99025CXX 18169.80136524  .00000583  00000-0  39266-3 0  9995
2 32330  98.0515  30.3701 0185476 297.4751  60.7664 13.95964509569988
Source of the keplerian elements: AFSPC